{"data":{"norad_id":61864,"intl_designator":"2024-202V","name":"STARLINK-32318","alt_names":[],"object_type":"PAYLOAD","status":"ACTIVE","operator":null,"country":"US","launch_date":"2024-11-07","launch_site_code":"AFETR","launch_vehicle":null,"mission":null,"orbit_class":"UNKNOWN","rcs_meters":null,"size_class":null,"mass_kg":null,"dimensions":null,"purposes":["comms"],"wikipedia_slug":null,"has_3d_model":false,"image_url":null,"decayed_at":null,"tle_current":{"epoch":"2026-09-21T06:10:25.083264Z","epoch_age_seconds":123085,"freshness":"FRESH","line1":"1 61864U 24202V   26264.25723476  .00000642  00000+0  32857-4 0  9991","line2":"2 61864  43.0028 213.8292 0001153 271.9991  88.0728 15.27579954105248","mean_motion":15.27579954,"eccentricity":0.0001153,"inclination_deg":43.0028,"raan_deg":213.8292,"arg_perigee_deg":271.9991,"mean_anomaly_deg":88.0728,"bstar":3.2857e-5,"rev_number":10524,"period_min":94.266751552305,"perigee_km":482.25813900745,"apogee_km":483.84032855296,"semimajor_km":6861.1862337802,"source":"CELESTRAK","updated_at":"2026-09-22T09:00:49.443652Z"}}}